Home   Weather   Freeport   Past weeks
Flag for Bahamas

Past Weather in Freeport, Bahamas — Yesterday and Last 2 Weeks

Now
64 °F

Passing clouds.


Feels Like: 64 °F
Forecast: 77 / 68 °F
Wind: 3 mph from Northwest

Location: Palm Beach International Airport

Current Time: Apr 3, 2020 at 8:01:07 am

Latest Report: Apr 3, 2020 at 6:53 am


Visibility: 10 mi

Pressure: 29.97 "Hg

Humidity: 84%

Dew Point: 59 °F

Location of FreeportLocation

Past Weather in Freeport — Graph

°F

Freeport Temperature Yesterday

Maximum temperature yesterday: 80 °F (at 11:53 am)
Minimum temperature yesterday: 62 °F (at 3:53 am)
Average temperature yesterday: 72 °F

High & Low Weather Summary for the Past Weeks

 TemperatureHumidityPressure
High92 °F (Mar 31, 3:53 pm)93% (Mar 26, 7:53 am)30.33 "Hg (Mar 26, 7:53 am)
Low62 °F (Apr 2, 3:53 am)37% (Mar 31, 5:53 pm)29.70 "Hg (Apr 1, 3:53 am)
Average78 °F66%30.08 "Hg
* Reported Mar 19 5:53 am — Apr 3 5:53 am, Freeport. Weather by CustomWeather, © 2020

Note: Actual official high and low records may vary slightly from our data, if they occured in-between our weather recording intervals... More about our weather records

Freeport Weather History for the Previous 24 Hours

Scroll right to see more
 ConditionsComfort  
Time TempWeatherWind HumidityBarometerVisibility
5:53 am
Fri, Apr 3
64 °FPassing clouds.No wind87%29.96 "Hg10 mi
4:53 am64 °FPassing clouds.3 mph87%29.96 "Hg10 mi
3:53 am65 °FPassing clouds.3 mph85%29.94 "Hg10 mi
2:53 am67 °FPassing clouds.No wind79%29.96 "Hg10 mi
1:53 am66 °FPassing clouds.3 mph78%29.96 "Hg10 mi
12:53 am69 °FPassing clouds.3 mph66%29.98 "Hg10 mi
11:53 pm
Thu, Apr 2
73 °FPassing clouds.3 mph57%29.98 "Hg10 mi
10:53 pm74 °FPassing clouds.6 mph56%29.97 "Hg10 mi
9:53 pm74 °FPassing clouds.6 mph53%29.97 "Hg10 mi
8:53 pm74 °FPassing clouds.7 mph52%29.96 "Hg10 mi
6:53 pm76 °FScattered clouds.8 mph47%29.94 "Hg10 mi
5:53 pm78 °FScattered clouds.7 mph43%29.93 "Hg10 mi
4:53 pm79 °FScattered clouds.10 mph42%29.93 "Hg10 mi
3:53 pm79 °FScattered clouds.8 mph42%29.94 "Hg10 mi
2:53 pm80 °FScattered clouds.8 mph42%29.95 "Hg10 mi
1:53 pm80 °FScattered clouds.9 mph42%29.96 "Hg10 mi
12:53 pm80 °FScattered clouds.5 mph42%29.99 "Hg10 mi
11:53 am80 °FScattered clouds.9 mph42%30.00 "Hg10 mi
10:53 am77 °FPassing clouds.8 mph47%30.01 "Hg10 mi
9:53 am75 °FPassing clouds.12 mph52%30.00 "Hg10 mi
8:53 am71 °FPassing clouds.9 mph59%29.98 "Hg10 mi
Weather by CustomWeather, © 2020

See weather overview

Advertising